sat.trackr.live / text

‹ back to catalog

STARLINK-36346

NORAD 67818 · 2026-032X

PAYLOAD ACTIVE UNKNOWN

§ Identity

Operator
Country
US
Launch date
2026-02-15
Launch site
AFWTR
Launch vehicle
Mass (kg)
RCS (m²)

Purposes: comms

External: N2YO · Heavens-Above · Gunter

§ Orbital elements

Epoch: 2026-09-19T22:33:15.021216Z

Period
93.91 min
Inclination
97.2855°
Eccentricity
0.0001314
Mean motion
15.33455590 rev/d
Perigee alt
464.6 km
Apogee alt
466.4 km
Semi-major
6,843.6 km
B*
5.2786e-4
RAAN
89.4154°
Arg perigee
54.8590°
Mean anomaly
305.2776°
Rev number
3,473

§ Raw data

STARLINK-363461 67818U 26032X   26262.93975719  .00017010  00000+0  52786-3 0  99902 67818  97.2855  89.4154 0001314  54.8590 305.2776 15.33455590 34736

JSON: /api/v1/satellites/67818 · /tle

For live sub-satellite position, see the globe view (requires WebGL).

§ Visibility from observer

Set your observer location to see the next 7 days of passes ≥ 10°. The values pass through the URL so the page stays shareable.

No JS? Fill the form by hand. The geolocation button needs JavaScript.